Theta_e
305 299 296 299 301 301 299 297 297 301 302 300 300 301 304 307 308 307 308 309 310 313 316 318 318 318 320 325 328 329 332 337 343 350 347 347 345 344 343 343 348 350 348 349
300 296 300 301 301 299 298 296 296 300 302 300 300 299 303 305 306 307 308 309 309 311 313 315 316 318 321 321 329 328 330 333 335 339 352 349 352 350 348 346 346 346 349 351
297 300 302 300 298 296 297 295 296 296 300 301 299 297 300 303 306 307 308 309 310 310 310 312 314 318 319 320 320 327 327 329 336 335 340 346 352 350 351 350 349 350 349 351
300 302 299 297 296 298 294 300 298 296 295 291 300 290 299 301 302 304 306 307 309 310 311 312 313 315 317 317 320 321 330 329 332 335 339 347 338 337 340 348 358 356 350 350
297 298 297 296 296 299 296 300 298 298 296 295 295 292 296 301 300 301 304 306 309 311 312 312 312 313 316 316 318 323 325 329 334 339 339 333 337 331 335 342 355 355 347 353
300 304 301 299 300 300 300 298 297 297 295 288 293 292 293 297 299 302 304 306 307 308 312 313 314 315 314 317 318 321 324 327 330 332 335 339 337 338 334 336 340 340 348 355
298 299 302 302 297 300 298 293 286 286 287 287 296 293 295 299 301 303 304 304 306 308 310 312 312 313 314 315 318 320 321 324 327 329 331 332 337 339 338 340 335 339 338 342
291 289 298 302 298 295 296 295 287 281 284 287 294 289 295 302 304 303 304 305 307 308 310 310 312 313 314 315 316 319 320 322 325 327 329 333 335 329 331 337 334 334 336 339
293 292 299 301 301 299 295 292 298 290 292 287 291 296 300 301 301 302 302 305 307 308 309 310 311 313 315 316 318 319 321 322 323 326 330 331 333 336 334 341 344 336 344 341
297 290 298 298 301 300 298 299 291 292 283 281 287 290 290 297 299 301 302 304 307 308 309 310 311 312 314 317 318 320 321 320 322 323 326 328 332 333 336 339 341 343 346 349
299 295 294 297 296 294 294 293 294 294 290 285 284 288 299 298 300 301 303 304 306 307 309 310 312 313 314 315 316 318 319 320 320 322 323 326 328 331 334 338 339 342 346 348
298 295 289 291 298 301 298 292 294 287 288 291 289 289 300 301 303 303 303 305 307 309 310 311 312 313 313 314 315 315 317 318 319 320 321 322 325 328 335 336 338 343 344 346
300 293 287 289 294 298 295 296 296 295 295 289 286 290 301 302 303 303 304 306 307 309 310 311 312 312 313 313 314 314 315 317 318 318 318 323 326 329 333 335 338 337 343 344
298 294 290 285 289 291 287 293 295 293 289 289 290 291 296 298 299 303 304 306 307 308 309 310 310 311 312 313 313 314 315 316 316 316 317 319 325 327 330 333 335 335 337 342
297 289 291 292 293 293 291 291 292 291 293 288 291 291 295 298 301 303 305 306 306 306 308 309 310 311 311 312 312 313 313 314 315 315 315 317 322 324 326 330 332 335 336 343
298 290 291 289 293 293 291 293 293 293 293 293 292 291 299 301 303 303 304 306 306 306 307 308 310 311 312 312 313 312 313 313 315 314 313 315 316 319 324 329 331 335 334 344
295 293 289 286 291 291 288 292 293 294 295 294 289 294 299 299 301 303 304 306 306 307 307 308 309 310 312 312 313 312 312 313 313 312 313 314 316 317 320 326 328 333 335 344
293 291 290 286 289 280 292 298 298 296 297 298 298 299 301 302 304 305 306 306 305 306 307 308 309 310 312 312 313 311 311 313 311 312 312 314 315 316 320 326 330 334 336 342
298 291 288 285 285 290 293 296 296 295 294 299 298 300 301 304 304 303 306 307 307 308 308 307 309 309 313 310 309 307 308 309 309 309 312 313 315 317 321 325 330 330 336 341
295 294 288 288 282 281 292 297 301 300 289 301 302 300 299 300 295 299 306 307 306 307 307 307 308 308 308 308 308 309 307 306 306 309 312 315 316 320 323 328 329 328 337 342
289 290 285 286 285 289 297 301 302 287 291 301 301 301 300 297 300 304 303 305 306 306 307 308 306 306 308 308 307 305 307 306 309 310 313 315 321 324 327 330 326 329 339 341
291 289 288 289 285 283 302 299 291 299 303 302 302 301 301 302 302 303 303 304 304 303 305 306 304 305 306 305 304 304 305 310 312 312 313 318 320 324 327 327 324 332 334 335
290 295 290 292 292 301 303 302 304 304 302 301 299 301 300 299 300 301 301 303 303 303 303 303 303 304 304 305 305 304 308 310 311 314 316 319 323 324 326 323 325 329 332 331
296 299 295 293 297 298 299 301 302 301 301 300 300 300 300 298 298 298 299 300 300 301 301 302 303 302 302 306 307 308 312 314 314 313 316 321 321 325 322 324 329 328 327 328
294 297 290 292 296 297 298 300 300 300 302 300 300 300 297 296 295 296 297 299 300 300 300 301 301 302 304 307 308 310 314 315 314 319 320 319 323 323 324 319 326 330 332 331
292 290 287 286 293 292 294 297 298 297 299 299 298 295 297 296 296 296 296 298 298 298 300 300 301 303 305 306 308 312 315 318 317 317 319 320 319 320 316 315 309 298 301 303
Wind_Speed
16 11 14 17 17 16 19 15 19 16 8 7 12 17 19 18 19 17 16 17 16 14 12 9 7 3 3 2 4 3 4 4 5 4 5 8 8 11 4 10 9 8 10 13
13 16 17 18 13 13 16 19 19 17 13 10 16 19 19 19 16 19 18 18 18 16 14 12 8 7 5 3 5 6 4 3 2 1 3 5 4 8 11 11 12 15 13 12
16 16 11 13 12 16 18 18 17 17 12 12 14 22 22 21 24 22 22 20 17 15 11 12 10 8 7 5 2 3 1 2 8 2 4 5 3 7 6 10 10 8 9 13
15 13 10 12 16 17 17 17 16 16 12 14 15 13 14 5 9 12 15 11 9 13 13 11 10 9 6 3 2 2 4 3 7 3 7 5 6 6 9 6 4 3 15 13
15 11 11 14 18 13 14 15 12 11 16 17 20 14 14 20 19 13 12 13 11 7 8 12 12 7 5 3 1 2 2 4 5 3 7 7 9 9 7 8 9 11 7 11
23 19 14 15 12 12 13 18 14 16 15 18 21 20 17 14 14 14 13 9 9 7 10 7 5 8 7 6 4 3 3 4 5 8 7 6 9 10 10 10 7 8 10 12
22 23 23 20 18 16 14 12 13 16 16 17 18 11 12 5 2 11 18 12 7 9 7 9 7 7 5 5 6 5 4 4 4 7 8 9 9 9 10 10 10 10 10 10
18 19 16 16 19 19 13 15 12 12 13 13 4 8 9 9 13 6 3 6 5 7 9 3 6 6 7 8 4 6 4 4 5 6 8 6 9 9 9 11 11 10 10 10
16 18 5 11 16 16 19 19 16 19 21 18 14 21 9 12 7 6 10 10 10 5 5 8 9 6 7 7 8 6 7 8 7 7 8 7 8 9 10 12 10 10 11 11
14 15 18 3 9 16 20 4 10 11 19 20 17 20 14 19 17 13 10 9 11 4 9 12 12 10 9 8 8 11 12 9 11 10 8 9 10 10 10 10 11 12 12 13
12 10 14 6 11 17 15 18 15 13 8 7 13 8 10 9 12 15 6 4 6 11 13 12 13 11 11 11 11 11 11 11 11 10 11 11 11 12 12 10 11 12 13 13
7 7 11 17 15 14 14 14 18 5 13 16 16 17 9 4 8 6 6 7 15 11 9 12 13 12 12 11 12 13 14 13 12 12 12 12 12 13 12 12 12 13 14 13
8 7 10 13 11 8 15 15 18 18 18 22 17 15 3 12 15 8 14 14 10 10 11 11 11 12 12 11 11 14 14 12 13 14 15 13 12 12 12 13 13 14 16 14
1 13 16 15 21 7 6 15 15 10 13 19 21 25 10 8 13 20 15 15 11 12 9 10 10 12 12 13 13 13 13 13 13 14 15 16 14 13 14 14 13 15 17 17
9 18 19 19 21 22 22 20 21 19 22 20 18 21 17 21 22 21 17 16 16 16 13 13 12 13 12 13 14 15 15 15 14 15 16 16 16 16 16 16 16 16 16 18
13 19 19 22 22 22 22 21 22 24 26 25 26 27 23 23 23 21 15 17 11 12 16 13 14 17 17 18 15 16 18 18 17 18 19 19 19 18 16 16 16 16 17 19
11 8 8 15 16 12 17 19 20 21 24 22 22 22 17 21 20 17 6 10 14 16 19 19 19 18 17 17 16 18 20 21 21 22 21 21 20 20 19 19 17 17 16 18
13 13 7 12 16 18 11 15 12 12 14 12 16 14 21 17 16 13 12 13 15 19 19 18 18 19 20 21 21 20 22 23 23 23 22 21 21 21 19 17 18 12 16 17
12 8 5 6 9 18 23 6 11 13 15 18 18 20 18 17 19 18 16 17 19 18 19 19 20 21 20 19 19 18 19 22 23 25 23 21 21 20 19 18 15 15 17 16
4 7 7 7 7 8 10 3 6 12 16 15 19 18 18 18 17 16 22 23 21 23 22 23 20 20 20 17 16 21 18 20 20 23 24 19 20 18 14 15 14 14 18 16
6 5 11 12 9 10 10 13 7 9 10 23 21 23 22 18 17 21 19 21 22 22 25 22 20 19 16 18 16 18 20 22 20 17 20 18 15 16 16 15 11 15 15 15
4 4 5 7 7 8 9 14 6 15 21 21 23 22 22 23 23 25 22 23 23 23 24 22 20 21 15 16 15 19 20 20 18 17 19 19 15 14 14 13 10 15 15 12
4 1 4 5 6 20 18 16 19 18 18 22 18 21 24 26 28 29 24 25 26 27 20 19 18 18 15 16 16 18 20 17 19 18 18 17 19 17 11 10 14 11 13 12
7 10 7 11 3 20 20 20 16 19 22 21 22 21 26 29 28 26 26 23 20 20 17 16 17 17 20 17 16 18 20 19 14 12 19 17 12 14 9 7 9 9 10 11
8 13 10 12 16 23 11 18 18 21 25 28 26 24 23 23 23 22 20 20 20 17 16 16 17 17 20 18 16 16 19 15 16 17 15 12 11 9 9 5 7 10 10 11
3 4 4 6 19 17 21 20 26 29 27 26 20 23 20 20 19 20 18 17 16 16 16 16 18 18 19 18 19 16 16 15 10 13 10 8 6 4 8 9 9 18 14 11
Wind_Direction
231 248 246 247 253 257 281 292 286 295 244 257 265 272 261 233 204 224 237 242 241 228 259 208 187 238 169 160 127 58 337 5 26 181 185 228 223 223 232 226 220 217 209 219
230 246 254 270 277 282 272 264 259 260 256 250 260 263 261 258 249 244 244 233 230 237 224 245 223 231 218 242 131 117 297 334 132 293 206 237 249 237 221 223 198 207 211 218
258 281 318 290 262 247 255 258 262 263 262 237 265 265 258 251 250 247 244 242 238 218 200 234 229 216 240 222 212 152 183 30 290 228 253 219 191 271 242 230 229 161 190 226
280 285 286 258 250 260 255 253 241 276 272 260 246 275 248 310 213 236 233 228 225 218 207 202 214 211 211 214 249 352 31 357 276 249 276 266 272 246 218 249 237 213 186 206
258 261 237 252 253 251 268 287 298 259 259 269 258 259 259 254 215 189 218 206 196 178 211 199 191 194 226 218 211 118 231 264 262 274 262 277 249 263 258 243 222 218 204 211
271 259 255 265 265 266 295 275 251 258 255 250 250 249 260 243 214 180 194 193 197 215 178 198 198 192 215 195 195 177 207 220 242 236 248 261 272 283 292 303 300 264 227 206
247 250 243 222 240 242 232 256 269 246 226 244 240 234 243 23 137 194 189 188 213 225 201 234 238 250 245 225 228 207 200 269 239 240 242 239 241 248 258 267 269 268 271 253
274 280 256 212 230 255 213 249 240 263 280 295 104 231 244 245 174 209 291 257 259 228 235 266 284 278 281 273 258 281 274 254 286 275 273 255 261 259 258 238 243 257 256 259
284 295 30 321 253 262 257 216 259 280 269 278 266 259 185 168 187 210 231 216 208 211 261 273 277 289 293 299 291 284 286 291 290 287 288 268 255 254 265 281 289 274 263 260
292 285 280 261 279 264 263 207 244 251 254 249 254 266 266 186 188 195 202 204 225 255 289 277 278 279 277 271 269 262 265 283 295 294 281 277 289 280 266 260 258 259 266 270
311 290 265 277 241 262 240 230 221 237 207 268 278 258 342 156 185 179 190 242 251 254 289 288 290 284 274 272 274 280 268 266 274 284 289 284 281 283 279 267 266 264 256 252
325 288 282 267 258 247 270 212 259 232 256 260 264 258 173 164 252 192 206 244 251 287 287 284 286 283 282 277 274 280 277 270 274 277 278 284 286 283 279 279 276 274 258 258
3 261 279 263 262 222 232 234 235 231 243 256 268 265 20 310 195 202 227 257 282 272 276 273 284 290 283 285 291 279 281 285 291 296 286 280 281 282 280 279 283 277 279 259
275 275 276 279 298 155 252 290 288 260 273 264 252 262 192 215 293 260 247 265 278 270 268 274 278 282 283 291 286 284 282 280 278 278 287 290 283 281 281 280 276 274 274 268
251 266 274 273 285 287 284 266 247 241 272 268 275 273 258 263 235 261 288 280 274 273 264 256 258 265 274 278 289 287 282 282 281 285 282 277 280 274 271 269 271 276 273 269
242 253 266 274 278 272 284 268 263 254 249 249 252 257 264 273 278 277 302 290 276 287 283 281 285 289 290 288 286 292 296 289 287 282 278 276 271 266 268 267 265 263 267 264
276 278 289 270 270 280 265 256 255 252 254 255 258 263 262 265 277 262 280 283 299 298 300 297 291 289 295 301 295 283 281 282 280 279 275 272 268 263 258 260 260 255 264 263
263 269 287 281 295 276 271 325 286 297 289 281 271 279 274 295 320 308 293 306 287 272 291 305 307 305 296 287 279 285 288 281 272 270 268 265 264 260 260 257 257 262 265 254
243 257 246 249 275 291 291 4 346 339 306 306 282 295 307 324 313 289 283 297 318 313 308 293 283 286 288 296 299 288 279 281 279 274 266 261 261 257 256 254 259 262 261 243
228 231 241 226 263 276 317 13 345 319 285 19 354 338 321 307 291 297 336 326 312 301 290 284 292 300 294 287 279 275 279 273 261 268 264 255 254 258 266 269 261 266 250 231
196 189 218 237 257 274 5 346 341 272 328 329 320 320 325 316 303 306 297 284 286 282 284 299 308 290 282 291 283 277 271 266 262 254 270 270 259 258 265 255 254 263 235 219
230 241 213 246 241 258 16 346 307 321 315 321 321 310 300 301 302 301 295 288 293 293 296 301 291 288 285 278 273 270 266 266 265 259 253 258 262 254 250 249 254 236 213 202
308 345 274 268 299 316 324 325 318 321 306 309 302 306 309 310 306 305 301 296 297 294 293 288 280 280 275 272 266 267 266 263 259 249 249 253 254 251 245 241 252 197 187 161
299 313 279 319 266 322 330 308 320 320 317 317 305 303 309 307 301 291 295 295 290 290 288 288 292 286 277 270 266 260 264 255 254 241 253 254 260 249 228 243 162 147 148 147
358 327 352 292 291 330 303 326 319 310 314 314 312 310 300 290 288 287 284 287 288 290 287 281 275 275 273 274 275 272 268 251 244 244 244 254 229 226 179 97 157 155 158 151
6 349 311 286 308 294 295 301 297 293 309 312 314 307 297 290 287 289 284 281 279 279 283 279 275 274 277 277 270 262 256 262 257 259 250 235 185 200 141 117 83 48 76 85